sat.trackr.live / text

‹ back to catalog

STARLINK-2221

NORAD 48571 · 2021-041U

PAYLOAD ACTIVE UNKNOWN

§ Identity

Operator
Country
US
Launch date
2021-05-15
Launch site
AFETR
Launch vehicle
Mass (kg)
RCS (m²)

Purposes: comms

External: N2YO · Heavens-Above · Gunter

§ Orbital elements

Epoch: 2026-09-19T18:27:13.099968Z

Period
94.01 min
Inclination
53.1618°
Eccentricity
0.0001470
Mean motion
15.31691971 rev/d
Perigee alt
469.8 km
Apogee alt
471.8 km
Semi-major
6,848.9 km
B*
9.3833e-5
RAAN
316.3492°
Arg perigee
75.9993°
Mean anomaly
284.1171°
Rev number
29,483

§ Raw data

STARLINK-22211 48571U 21041U   26262.76890162  .00002547  00000+0  93833-4 0  99972 48571  53.1618 316.3492 0001470  75.9993 284.1171 15.31691971294836

JSON: /api/v1/satellites/48571 · /tle

For live sub-satellite position, see the globe view (requires WebGL).

§ Visibility from observer

Set your observer location to see the next 7 days of passes ≥ 10°. The values pass through the URL so the page stays shareable.

No JS? Fill the form by hand. The geolocation button needs JavaScript.